Location: Centerville
(32.8776°N, 96.6203°W)
Time: 22:49:39
(UTC+00:00)

Geosat - Pass Details

Date: 17 June 2021
Orbit: 762 x 766 km, 108.0° (Epoch: 01 August)

Event Time Altitude Azimuth Distance (km) Brightness Sun altitude
Exits shadow 03:55:46 48° 94° (E) 984 4.2 -23.1°
Maximum altitude 03:56:31 53° 62° (ENE) 929 4.3 -23.2°
Drops below altitude 10° 04:01:23 10° 346° (NNW) 2,302 7.4 -23.8°
Sets 04:03:42 0° 342° (NNW) 3,232 8.4 -24.1°
